sat.trackr.live / text

‹ back to catalog

STARLINK-5485

NORAD 57261 · 2023-094AV

PAYLOAD ACTIVE UNKNOWN

§ Identity

Operator
Country
US
Launch date
2023-07-07
Launch site
AFWTR
Launch vehicle
Mass (kg)
RCS (m²)

Purposes: comms

External: N2YO · Heavens-Above · Gunter

§ Orbital elements

Epoch: 2026-05-25T04:09:31.891392Z

Period
94.27 min
Inclination
43.0031°
Eccentricity
0.0001753
Mean motion
15.27576211 rev/d
Perigee alt
481.9 km
Apogee alt
484.3 km
Semi-major
6,861.2 km
B*
1.4246e-5
RAAN
318.6947°
Arg perigee
270.3397°
Mean anomaly
89.7254°
Rev number
15,881

§ Raw data

STARLINK-54851 57261U 23094AV  26145.17328578  .00000130  00000+0  14246-4 0  99922 57261  43.0031 318.6947 0001753 270.3397  89.7254 15.27576211158814

JSON: /api/v1/satellites/57261 · /tle

For live sub-satellite position, see the globe view (requires WebGL).

§ Visibility from observer

Set your observer location to see the next 7 days of passes ≥ 10°. The values pass through the URL so the page stays shareable.

No JS? Fill the form by hand. The geolocation button needs JavaScript.